Weather Service Report


775 
ASUS45 KCYS 210510
RWRWY 

WYOMING REGIONAL WEATHER ROUNDUP
NATIONAL WEATHER SERVICE CHEYENNE WY
1100 PM MDT SUN APR 20 2014

NOTE:  "FAIR" INDICATES FEW OR NO CLOUDS BELOW 12,000 FEET
WITH NO SIGNIFICANT WEATHER AND/OR OBSTRUCTIONS TO VISIBILITY.

WYZ001-210600-
YELLOWSTONE NATIONAL PARK
  
CITY           SKY/WX    TMP DP  RH WIND       PRES   REMARKS
LK YELLOWSTONE   N/A     27  22  81 CALM      30.31R                  
W YELLOWSTONE  NOT AVBL                                               

$$
WYZ002>013-054>058-071-098>099-210600-
NORTHERN WYOMING
  
CITY           SKY/WX    TMP DP  RH WIND       PRES   REMARKS
JACKSON        CLEAR     34  28  80 N5        30.26R WCI  30          
CODY           PTCLDY    46  19  34 NW8       30.22R                  
GREYBULL       MOCLDY    57  14  18 NW16      30.13R                  
WORLAND        MOCLDY    53  19  26 N6        30.16R                  
SHERIDAN         N/A     41  30  65 NE9         N/A                   
BUFFALO        PTCLDY    41  20  43 NW10      30.22R                  
GILLETTE       CLEAR     32  24  72 CALM      30.18F                  
HULETT         FAIR      48  21  34 CALM      30.18                   
NEWCASTLE      FAIR      48  23  37 N6        30.15                   

$$
WYZ014>020-022>026-101>103-210600-
CENTRAL WYOMING
  
CITY           SKY/WX    TMP DP  RH WIND       PRES   REMARKS
BIG PINEY      PTCLDY    33  18  53 NW9       30.27R WCI  25          
PINEDALE       PTCLDY    32  23  69 W8        30.27S WCI  25          
DUBOIS         FAIR      36  19  51 NW9       30.25R WCI  29          
LANDER         PTCLDY    49  19  30 W8        30.19R                  
RIVERTON       PTCLDY    50  28  42 E6        30.20R                  
CASPER         CLEAR     41  31  67 NE5       30.20R                  
DOUGLAS        CLEAR     49  33  54 NW8       30.18R                  

$$
WYZ021-027>030-104>119-210600-
SOUTHERN WYOMING
  
CITY           SKY/WX    TMP DP  RH WIND       PRES   REMARKS
EVANSTON       MOCLDY    46  18  32 N5        30.28R                  
KEMMERER       PTCLDY    41  16  36 NW5       30.28S                  
FORT BRIDGER   FAIR      44  16  33 W8        30.30R                  
ROCK SPRINGS   MOCLDY    47  10  22 NW5       30.23S                  
DIXON          CLOUDY    40  34  80 CALM      30.26R                  
RAWLINS        CLEAR     49  28  44 W10       30.19R                  
SARATOGA       FAIR      43  32  65 SE10      30.22S                  
LARAMIE        MOCLDY    41  31  67 E7        30.22R                  
CHEYENNE       PTCLDY    52  31  44 NW6       30.17R                  
TORRINGTON     CLEAR     52  31  44 N3        30.12R                  
PINE BLUFFS    FAIR      46  34  61 NE10      30.13R                  

$$

Return to Home page


Western Regional Climate Center, wrcc@dri.edu